Simultaneous Nadir Overpasses (SNOs) Predictions

Prediction of SNOs between NOAA-19 and TERRA Satellite Orbit:

Table of predicted SNOs for the next 14.0 days since TLE Epoch: 5/31/2019
Index Date (NOAA-19) Time (NOAA-19) Lat,Lon (NOAA-19) SZA (NOAA-19 ) Date (TERRA) Time (TERRA) Lat,Lon (TERRA) SZA (TERRA ) Distance(km) Time Diff (sec)
1 06/02/2019 13:16:46 78.52, 2.06 57.17 06/02/2019 13:17:59 78.41, 2.48 57.13 15.13 73
2 06/02/2019 14:07:44 -78.39, 170.18 122.89 06/02/2019 14:07:26 -78.42, 170.16 122.87 3.67 18
3 06/04/2019 19:41:09 78.42, -93.28 56.85 06/04/2019 19:41:09 78.41, -93.34 56.84 1.69 0
4 06/07/2019 01:14:37 -78.42, 3.39 123.39 06/07/2019 01:14:52 -78.45, 3.45 123.35 3.31 15
5 06/07/2019 02:05:32 78.31, 171.35 56.58 06/07/2019 02:04:19 78.40, 170.83 56.58 14.84 73
6 06/09/2019 06:48:01 78.46, 99.86 56.43 06/09/2019 06:48:35 78.43, 99.90 56.41 4.24 34
7 06/09/2019 07:39:03 -78.41, -92.57 123.60 06/09/2019 07:38:03 -78.40, -92.60 123.64 1.74 60
8 06/11/2019 12:21:29 -78.44,-163.25 123.76 06/11/2019 12:22:18 -78.47,-163.31 123.72 3.84 49
9 06/11/2019 13:12:26 78.44, 4.00 56.24 06/11/2019 13:11:45 78.41, 4.04 56.20 3.17 41
10 06/13/2019 17:54:52 78.48, -66.81 56.12 06/13/2019 17:56:00 78.48, -66.69 56.15 2.68 68




NCC Satellite Simultaneous Nadir Overpasses (SNOs) Prediction Service
